Flag for Papua New Guinea Weather past 2 weeks in Lae, Papua New Guinea

Now
77 °F

Passing clouds.


Feels Like: 78 °F
Forecast: 69 / 89 °F
Wind: 6 mph from Southeast

Location: Moresby

Current Time: Aug 22, 2014 at 9:54:12 PM

Latest Report: Aug 22, 2014 at 9:00 PM


Visibility: N/A

Pressure: 29.86 "Hg

Humidity: 89%

Dew point: 73 °F

Location of LaeLocation

Historic Weather in Lae — Graph

°F

Lae temperature yesterday

Maximum temperature yesterday: 86 °F (at 12:00 PM)
Minimum temperature yesterday: 75 °F (at 12:00 AM)
Average temperature yesterday: 79 °F

Past Weeks' High & Low Weather Summary

 TemperatureHumidityPressure
High90 °F (Aug 16, 12:00 PM)100% (Aug 14, 11:00 AM)29.92 "Hg (Aug 14, 11:00 AM)
Low36 °F (Aug 14, 11:00 AM)49% (Aug 16, 12:00 PM)29.74 "Hg (Aug 16, 2:00 PM)
Average79 °F82%29.84 "Hg
* Reported Aug 7 8:00 PM — Aug 22 8:00 PM, Lae, Weather by CustomWeather, © 2014

Note: Actual official high and low records may vary slightly from our data, if they occured in-between our weather recording intervals... More about our weather records

Advertising

Lae weather history for previous 24 hours

 ConditionsComfort  
Time TempWeatherWind HumidityBarometerVisibility
8:00 PM
Aug 22
77 °FPartly cloudy.7 mph89%29.83 "HgN/A
7:00 PM77 °FSprinkles. Overcast.2 mph94%29.83 "HgN/A
6:00 PM79 °FBroken clouds.9 mph89%29.80 "HgN/A
5:00 PM81 °FScattered clouds.9 mph84%29.77 "HgN/A
4:00 PM82 °FScattered clouds.9 mph79%29.77 "HgN/A
2:00 PM86 °FScattered clouds.9 mph66%29.80 "HgN/A
1:00 PM84 °FPartly sunny.12 mph74%29.83 "HgN/A
12:00 PM84 °FPartly sunny.2 mph74%29.86 "HgN/A
11:00 AM82 °FPartly sunny.6 mph74%29.89 "HgN/A
10:01 AM81 °FBroken clouds.1 mph79%29.89 "HgN/A
9:00 AM81 °FBroken clouds.No wind79%29.92 "HgN/A
8:00 AM77 °FMostly cloudy.No wind89%29.89 "HgN/A
7:00 AM75 °FOvercast.No wind94%29.89 "HgN/A
6:00 AM75 °FOvercast.No wind94%29.86 "HgN/A
5:00 AM75 °FLow clouds.No wind94%29.83 "HgN/A
4:00 AM75 °FLow clouds.No wind94%29.83 "HgN/A
3:00 AM75 °FMostly cloudy.No wind94%29.83 "HgN/A
2:00 AM75 °FDrizzle. Mostly cloudy.3 mph100%29.83 "HgN/A
1:00 AM75 °FMostly cloudy.3 mph94%29.86 "HgN/A
12:00 AM75 °FDrizzle. Mostly cloudy.3 mph94%29.86 "HgN/A
11:00 PM
Aug 21
77 °FLight rain. Overcast.6 mph94%29.89 "HgN/A
10:00 PM77 °FLight rain. Mostly cloudy.6 mph94%29.89 "HgN/A
9:00 PM79 °FSprinkles. Mostly cloudy.5 mph84%29.89 "HgN/A
Weather by CustomWeather, © 2014

See weather overviewHow to use our weather pages